DW7780 Weather Reports


time (UTC)temp
F
wind
direction
speed
knots
gust
knots
rain 1hr
in
rain 24hr
in
rain mn
in
humidity
%
barometer
mb
20260504201530 72 227 2.6 9.6 0.00 0.00 0.00 37 1009.5
20260504200030 71 278 0.9 8.7 0.00 0.00 0.00 37 1009.6
20260504194528 71 286 1.7 8.7 0.00 0.00 0.00 39 1009.7
20260504193027 71 267 0.9 7.0 0.00 0.00 0.00 39 1009.8
20260504191528 71 255 1.7 10.4 0.00 0.00 0.00 38 1009.9
20260504190028 70 309 2.6 10.4 0.00 0.00 0.00 37 1010.0
20260504184542 70 306 1.7 10.4 0.00 0.00 0.00 37 1010.3
20260504183030 70 273 2.6 9.6 0.00 0.00 0.00 39 1010.6
20260504181534 70 228 3.5 10.4 0.00 0.00 0.00 37 1010.9
20260504180030 70 273 4.3 8.7 0.00 0.00 0.00 36 1011.2
20260504174528 69 279 4.3 11.3 0.00 0.00 0.00 36 1011.3
20260504173028 70 288 2.6 8.7 0.00 0.00 0.00 38 1011.3
20260504171530 69 325 0.9 9.6 0.00 0.00 0.00 42 1011.5
20260504081527 35 0 0.0 0.0 0.00 0.00 0.00 88 1014.3
20260504044526 39 0 0.0 0.0 0.00 0.00 0.00 83 1014.0
20260504043029 39 0 0.0 0.0 0.00 0.00 0.00 82 1013.8
20260504041534 40 0 0.0 0.0 0.00 0.00 0.00 82 1013.6
20260504040030 40 0 0.0 0.0 0.00 0.00 0.00 82 1013.6
20260504034526 40 0 0.0 0.0 0.00 0.00 0.00 82 1013.4
20260504033028 40 0 0.0 0.0 0.00 0.00 0.00 81 1013.4
20260504031528 41 0 0.0 0.0 0.00 0.00 0.00 81 1013.3
20260504030029 41 0 0.0 0.0 0.00 0.00 0.00 79 1013.1
20260504024528 42 0 0.0 0.0 0.00 0.00 0.00 78 1013.2
20260504023028 42 0 0.0 0.0 0.00 0.00 0.00 77 1013.2
20260504021530 43 0 0.0 0.0 0.00 0.00 0.00 76 1013.2
20260504020028 44 0 0.0 0.0 0.00 0.00 0.00 75 1013.0
20260504014534 44 0 0.0 0.0 0.00 0.00 0.00 73 1013.1
20260504013032 45 0 0.0 0.0 0.00 0.00 0.00 73 1013.0
20260504011530 47 0 0.0 0.0 0.00 0.00 0.00 70 1012.8
20260504010028 48 0 0.0 0.0 0.00 0.00 0.00 66 1012.6
20260504004529 50 0 0.0 0.0 0.00 0.00 0.00 59 1012.4
20260504003032 52 0 0.0 0.0 0.00 0.00 0.00 59 1012.2
20260504001531 54 0 0.0 0.0 0.00 0.00 0.00 50 1012.0
20260504000028 56 0 0.0 1.7 0.00 0.00 0.00 49 1011.8
20260503234539 57 268 0.0 4.3 0.00 0.00 0.00 38 1011.7
20260503233036 58 0 0.0 3.5 0.00 0.00 0.00 37 1011.6
20260503231533 58 232 1.7 7.0 0.00 0.00 0.00 35 1011.6
20260503230028 59 268 0.9 3.5 0.00 0.00 0.00 34 1011.4
20260503224529 59 277 1.7 8.7 0.00 0.00 0.00 35 1011.4
20260503223027 59 270 1.7 6.1 0.00 0.00 0.00 34 1011.4
20260503221534 59 300 3.5 11.3 0.00 0.00 0.00 33 1011.3
20260503220028 60 261 2.6 7.0 0.00 0.00 0.00 32 1011.2
20260503214530 60 267 1.7 7.0 0.00 0.00 0.00 33 1011.2
20260503213027 60 315 5.2 12.2 0.00 0.00 0.00 32 1011.3
20260503211528 59 292 2.6 9.6 0.00 0.00 0.00 34 1011.4
20260503210028 59 278 2.6 10.4 0.00 0.00 0.00 33 1011.3
20260503204530 59 267 2.6 9.6 0.00 0.00 0.00 36 1011.5
20260503203036 58 287 2.6 10.4 0.00 0.00 0.00 36 1011.6